Probability
55 26 3 3 0 0 0 0 0 0 0 0 0 0 0 0 0 0 0 0 0 0 6 23 23 23 23 26 23 26 26 29 29 26 29 32 35 32 39 45 48 52 45 42 42 45 48 52 58
39 23 3 0 0 0 0 0 0 0 0 0 0 0 0 0 0 0 0 3 0 0 6 6 16 19 23 26 29 16 23 19 19 13 23 29 29 32 39 32 35 45 42 35 42 42 48 52 55
19 6 3 0 0 0 0 0 0 0 0 0 0 0 0 0 0 0 0 0 3 3 6 16 29 19 19 23 19 23 16 16 19 16 19 19 23 35 32 32 35 39 35 35 39 42 45 45 52
0 0 0 0 0 0 0 0 0 0 0 0 0 0 0 0 0 0 0 0 3 6 10 16 26 26 26 23 19 16 19 13 16 16 19 16 23 26 26 35 29 29 35 35 39 39 32 39 42
0 0 0 0 0 0 0 0 0 0 0 0 0 0 0 0 0 0 0 0 0 0 3 3 13 19 23 23 19 23 13 13 13 10 19 16 10 16 26 29 26 29 29 29 26 26 29 32 32
0 0 0 0 0 0 0 0 0 0 0 0 0 0 0 0 0 0 0 0 0 0 3 3 13 19 23 19 19 19 10 16 16 16 16 19 16 10 10 16 13 26 26 26 23 29 29 19 23
0 0 0 0 0 0 0 0 0 0 0 0 0 0 0 0 0 0 0 0 0 0 3 3 6 6 10 13 23 19 13 10 10 13 10 13 16 16 16 10 10 10 13 13 23 26 19 23 19
0 0 0 0 0 0 0 0 0 0 0 0 0 0 0 0 0 0 0 0 0 0 6 6 3 0 0 3 10 13 16 16 16 6 10 10 6 6 13 3 6 6 6 13 23 23 19 19 23
0 0 0 0 0 0 0 0 0 0 0 0 0 0 0 0 0 0 0 0 0 0 3 0 0 0 0 0 3 3 6 6 3 3 6 3 0 3 3 3 13 16 16 10 19 23 16 10 19
0 0 0 0 0 0 0 0 0 0 0 0 0 0 0 0 0 0 0 0 0 0 0 0 0 0 0 0 0 0 0 0 0 0 0 0 0 0 0 6 13 10 13 3 6 6 6 0 0
0 0 0 0 0 0 0 0 0 0 0 0 0 0 0 0 0 0 0 0 0 0 0 0 0 0 0 0 0 0 0 0 0 0 0 0 0 0 0 0 0 0 0 0 0 0 0 0 0
0 0 0 0 0 0 0 0 0 0 0 0 0 0 0 0 0 0 0 0 0 0 0 0 0 0 0 0 0 0 0 0 0 0 0 0 0 0 0 0 0 0 0 0 0 0 0 0 0
0 3 0 0 0 0 0 0 0 3 3 0 0 0 0 0 0 0 0 0 0 0 0 0 0 0 0 0 0 0 0 0 0 0 0 0 0 0 0 0 0 0 0 0 0 0 0 0 0
0 0 0 0 0 0 0 0 0 3 3 0 0 0 0 0 0 0 0 0 0 0 0 0 0 0 0 0 0 0 0 0 0 0 0 0 0 0 0 0 0 0 0 0 0 0 0 0 0
0 0 0 0 0 0 0 0 0 3 3 3 3 0 0 0 0 0 0 0 0 0 0 0 0 0 0 0 0 0 0 0 0 0 0 0 0 0 0 0 0 0 0 0 0 0 0 0 0
0 0 0 0 0 0 0 0 0 3 3 3 3 0 0 0 0 0 0 0 0 0 0 0 0 0 0 0 0 0 0 0 0 0 0 0 0 0 0 0 0 0 0 0 0 0 0 0 0
0 0 0 0 0 0 0 0 0 3 3 3 3 3 0 0 0 0 0 0 0 0 0 0 0 0 0 0 0 0 0 0 0 0 0 0 0 0 0 0 0 0 0 0 0 0 0 0 0
0 0 0 0 0 0 0 0 0 0 0 3 3 3 3 0 3 3 0 0 0 0 0 0 0 0 0 0 0 0 0 0 0 0 0 0 0 0 0 0 0 0 0 0 0 0 0 0 0
0 0 0 0 0 0 0 0 0 0 0 0 0 3 3 3 3 3 0 0 0 0 0 0 0 0 0 0 0 0 0 0 0 0 0 0 0 0 0 0 0 0 0 0 0 0 0 0 0
0 0 0 0 0 0 0 0 0 0 0 0 0 0 0 3 3 3 0 0 0 0 0 0 0 0 0 0 0 0 0 0 0 0 0 0 0 0 0 0 0 0 0 0 0 0 0 0 0
0 0 0 0 0 0 0 0 0 0 0 0 0 0 0 0 6 3 0 0 0 0 0 0 0 0 0 0 0 0 0 0 0 0 0 0 0 0 0 0 0 0 0 0 0 0 0 0 0
0 0 0 0 0 0 0 0 0 0 0 0 0 0 0 0 0 3 0 0 0 0 0 0 0 0 0 0 0 0 0 0 0 0 0 0 0 0 0 0 0 0 0 0 0 0 0 0 0
0 0 0 0 0 0 0 0 0 0 0 0 0 0 0 0 0 0 0 0 0 0 0 0 0 0 0 0 0 0 0 0 0 0 0 0 0 0 0 0 0 0 0 0 0 0 0 0 0
0 0 0 0 0 0 0 0 0 0 0 0 0 0 0 0 0 0 0 0 0 0 0 0 0 0 0 0 0 0 0 0 0 0 0 0 0 0 0 0 0 0 0 0 0 0 0 0 0
0 0 0 0 0 0 0 0 0 0 0 0 0 0 0 0 0 0 0 0 0 0 0 0 0 0 0 0 0 0 0 0 0 0 0 0 0 0 0 0 0 0 0 0 0 0 0 0 0
0 0 0 0 0 0 0 0 0 0 0 0 0 0 0 0 0 0 0 0 0 0 0 0 0 0 0 0 0 0 0 0 0 0 0 0 0 0 0 0 0 0 0 0 0 0 0 0 0
0 0 0 0 0 0 0 0 0 0 0 0 0 0 0 0 0 0 0 0 0 0 0 0 0 0 0 0 0 0 0 0 0 0 0 0 0 0 0 0 0 0 0 0 0 0 0 0 0
0 0 0 0 0 0 0 0 0 0 0 0 0 0 0 0 0 0 0 0 0 0 0 0 0 0 0 0 0 0 0 0 0 0 0 0 0 0 0 0 0 0 0 0 0 0 0 0 0
0 0 0 0 0 0 0 0 0 0 0 0 0 0 0 0 0 0 0 0 0 0 0 0 0 0 0 0 0 0 0 0 0 0 0 0 0 0 0 0 0 0 0 0 0 0 0 0 0
0 0 0 0 0 0 0 0 0 0 0 0 0 0 0 0 0 0 0 0 0 0 0 0 0 0 0 0 0 0 0 0 0 0 0 0 0 0 0 0 0 0 0 0 0 0 0 0 0
Height
5871 5870 5870 5871 5872 5872 5872 5872 5872 5872 5872 5872 5872 5872 5872 5872 5872 5874 5872 5870 5870 5870 5870 5869 5869 5868 5868 5867 5867 5867 5866 5866 5866 5866 5866 5866 5866 5866 5866 5866 5866 5867 5867 5868 5868 5869 5870 5870 5871
5871 5871 5872 5872 5872 5872 5873 5872 5872 5872 5872 5871 5871 5871 5871 5871 5871 5871 5870 5870 5870 5869 5869 5868 5868 5867 5867 5866 5866 5866 5866 5865 5865 5865 5865 5865 5865 5865 5865 5865 5865 5866 5866 5867 5867 5868 5868 5869 5870
5871 5871 5873 5872 5871 5872 5872 5872 5871 5871 5871 5871 5871 5871 5871 5871 5870 5870 5870 5869 5869 5868 5868 5867 5867 5866 5866 5866 5865 5865 5865 5864 5864 5864 5864 5864 5864 5864 5864 5864 5864 5864 5865 5866 5866 5867 5867 5868 5868
5871 5872 5872 5872 5871 5872 5871 5871 5871 5871 5871 5871 5871 5870 5870 5870 5870 5869 5869 5868 5868 5867 5867 5866 5865 5865 5864 5864 5864 5864 5863 5863 5863 5863 5863 5863 5862 5862 5863 5863 5863 5863 5864 5864 5865 5865 5866 5866 5867
5871 5872 5872 5871 5871 5871 5871 5871 5871 5871 5870 5870 5870 5870 5869 5869 5869 5868 5868 5867 5867 5866 5866 5865 5864 5863 5863 5863 5863 5862 5862 5862 5862 5862 5861 5861 5861 5861 5861 5861 5862 5862 5862 5863 5863 5864 5864 5865 5866
5871 5871 5871 5871 5871 5871 5870 5870 5870 5870 5870 5870 5869 5869 5869 5868 5867 5867 5867 5866 5866 5865 5864 5864 5863 5862 5862 5862 5861 5861 5861 5860 5860 5860 5860 5860 5860 5859 5859 5860 5860 5860 5861 5861 5862 5862 5863 5863 5864
5871 5870 5870 5870 5871 5871 5871 5870 5870 5870 5869 5869 5869 5868 5868 5867 5867 5866 5865 5865 5864 5863 5863 5862 5862 5861 5860 5860 5859 5859 5859 5859 5859 5858 5858 5858 5858 5858 5858 5858 5858 5859 5859 5859 5860 5860 5861 5862 5862
5870 5871 5870 5870 5870 5870 5870 5870 5869 5869 5869 5869 5868 5868 5867 5867 5866 5865 5864 5864 5863 5862 5861 5861 5860 5859 5859 5858 5858 5857 5857 5857 5857 5857 5857 5856 5856 5856 5856 5856 5856 5857 5857 5857 5858 5858 5859 5859 5860
5870 5871 5869 5870 5870 5870 5870 5869 5869 5869 5868 5868 5867 5867 5866 5866 5865 5864 5863 5863 5862 5861 5860 5859 5858 5858 5857 5857 5856 5856 5855 5855 5855 5855 5855 5855 5854 5854 5854 5854 5854 5854 5855 5855 5856 5856 5856 5857 5858
5870 5870 5870 5870 5869 5869 5869 5869 5868 5868 5867 5867 5867 5866 5865 5864 5864 5863 5862 5861 5860 5859 5858 5858 5857 5856 5856 5855 5854 5854 5854 5854 5853 5853 5853 5853 5852 5852 5852 5852 5852 5852 5853 5853 5854 5854 5854 5855 5855
5869 5869 5869 5869 5869 5869 5868 5868 5867 5867 5867 5866 5866 5865 5864 5863 5863 5862 5861 5860 5859 5858 5857 5856 5855 5854 5854 5853 5853 5853 5852 5852 5852 5851 5851 5850 5850 5850 5850 5850 5850 5850 5851 5851 5851 5852 5852 5853 5853
5869 5869 5869 5868 5868 5868 5867 5867 5866 5866 5866 5865 5865 5864 5863 5862 5861 5861 5860 5859 5858 5856 5855 5854 5854 5853 5852 5852 5851 5851 5850 5850 5850 5849 5849 5849 5848 5848 5848 5848 5848 5848 5849 5849 5849 5849 5850 5850 5851
5868 5868 5868 5868 5867 5867 5867 5866 5866 5865 5865 5864 5863 5863 5862 5861 5860 5859 5858 5857 5856 5855 5854 5853 5852 5851 5850 5850 5850 5849 5849 5848 5848 5847 5847 5847 5846 5846 5846 5846 5846 5846 5846 5847 5847 5847 5847 5848 5848
5868 5867 5867 5867 5867 5866 5866 5865 5865 5864 5864 5863 5862 5861 5861 5860 5859 5858 5857 5856 5855 5854 5853 5851 5850 5850 5849 5848 5848 5847 5847 5847 5846 5846 5845 5845 5844 5844 5844 5844 5844 5844 5844 5844 5845 5845 5845 5845 5846
5867 5867 5867 5866 5866 5865 5865 5865 5864 5863 5863 5862 5861 5860 5859 5858 5857 5856 5855 5854 5853 5852 5851 5850 5849 5848 5848 5847 5846 5846 5845 5845 5844 5844 5843 5843 5843 5842 5842 5842 5842 5842 5842 5842 5843 5843 5843 5843 5843
5866 5866 5866 5866 5865 5864 5866 5864 5863 5862 5861 5861 5860 5859 5858 5857 5856 5855 5854 5853 5852 5850 5850 5849 5848 5847 5846 5846 5845 5844 5844 5843 5843 5842 5842 5841 5841 5840 5840 5840 5840 5840 5840 5840 5840 5841 5841 5841 5841
5865 5865 5865 5865 5864 5863 5864 5863 5862 5861 5861 5860 5859 5858 5857 5856 5855 5853 5852 5851 5850 5849 5848 5848 5847 5846 5845 5845 5844 5843 5843 5842 5841 5841 5840 5839 5839 5839 5839 5838 5838 5838 5838 5838 5839 5839 5839 5839 5839
5864 5864 5864 5863 5863 5862 5862 5862 5861 5860 5859 5859 5858 5857 5856 5855 5854 5852 5851 5850 5849 5848 5847 5847 5846 5845 5844 5843 5843 5842 5841 5840 5840 5839 5838 5838 5837 5837 5837 5837 5837 5837 5837 5837 5837 5837 5837 5837 5837
5863 5863 5863 5862 5861 5861 5861 5860 5860 5859 5858 5857 5857 5856 5855 5854 5852 5851 5850 5849 5848 5847 5846 5846 5845 5844 5843 5843 5842 5841 5840 5839 5839 5838 5837 5837 5836 5836 5836 5836 5836 5836 5836 5835 5835 5835 5835 5835 5835
5861 5861 5861 5861 5860 5860 5859 5859 5858 5858 5857 5857 5856 5855 5853 5852 5851 5850 5849 5848 5847 5846 5846 5845 5844 5843 5843 5842 5841 5840 5839 5839 5838 5837 5837 5836 5836 5835 5835 5835 5834 5834 5834 5834 5834 5834 5834 5833 5833
5860 5860 5860 5859 5859 5858 5859 5858 5858 5857 5856 5855 5854 5853 5852 5852 5850 5849 5848 5848 5847 5846 5845 5844 5844 5843 5842 5841 5841 5840 5839 5838 5837 5837 5836 5836 5835 5835 5835 5834 5834 5833 5833 5833 5832 5833 5832 5832 5832
5858 5858 5858 5858 5858 5857 5858 5857 5857 5856 5855 5854 5853 5853 5852 5851 5850 5849 5848 5847 5846 5845 5844 5844 5843 5842 5841 5841 5840 5839 5839 5838 5837 5836 5836 5835 5835 5834 5834 5833 5833 5833 5833 5832 5832 5832 5832 5831 5831
5856 5856 5856 5856 5856 5856 5856 5856 5856 5855 5854 5854 5853 5852 5851 5850 5849 5848 5847 5846 5845 5844 5844 5843 5842 5842 5841 5840 5839 5839 5838 5837 5837 5836 5835 5835 5834 5834 5833 5833 5833 5832 5832 5832 5831 5831 5831 5830 5830
5854 5854 5854 5854 5854 5855 5855 5855 5855 5854 5853 5852 5852 5851 5850 5849 5848 5847 5846 5845 5844 5844 5843 5842 5841 5841 5840 5839 5839 5838 5838 5837 5836 5836 5835 5834 5834 5833 5833 5832 5832 5832 5831 5831 5831 5830 5830 5830 5829
5852 5853 5853 5852 5852 5853 5853 5853 5853 5852 5851 5851 5851 5850 5849 5848 5847 5846 5845 5845 5844 5843 5842 5841 5840 5840 5839 5838 5838 5837 5837 5836 5836 5835 5835 5834 5833 5833 5832 5832 5831 5831 5830 5830 5830 5830 5829 5828 5828
5849 5850 5851 5851 5850 5851 5851 5851 5852 5851 5850 5849 5849 5849 5848 5847 5846 5845 5845 5844 5843 5842 5841 5840 5840 5839 5838 5838 5837 5836 5836 5836 5835 5835 5834 5833 5833 5832 5832 5831 5830 5830 5829 5829 5829 5828 5828 5827 5827
5846 5846 5848 5848 5847 5848 5848 5849 5850 5849 5848 5848 5847 5847 5846 5845 5845 5844 5843 5843 5842 5841 5840 5839 5839 5838 5838 5837 5836 5836 5835 5835 5834 5834 5833 5833 5832 5831 5831 5830 5830 5829 5828 5828 5828 5827 5827 5826 5826
5843 5843 5844 5844 5844 5844 5845 5846 5848 5847 5846 5846 5845 5845 5844 5844 5843 5843 5842 5841 5841 5840 5839 5838 5837 5837 5836 5836 5835 5834 5834 5834 5833 5833 5832 5832 5831 5831 5830 5830 5829 5828 5827 5827 5827 5826 5825 5825 5825
5840 5840 5840 5840 5841 5841 5842 5846 5845 5844 5844 5844 5843 5843 5842 5841 5841 5841 5840 5840 5839 5838 5838 5837 5836 5835 5835 5834 5834 5833 5833 5832 5832 5831 5831 5831 5830 5830 5829 5828 5828 5827 5826 5825 5825 5824 5824 5823 5823
5835 5836 5837 5838 5838 5838 5839 5843 5841 5841 5841 5841 5840 5840 5839 5839 5838 5838 5838 5838 5838 5837 5836 5836 5835 5834 5833 5833 5832 5832 5831 5831 5831 5830 5830 5829 5828 5828 5828 5827 5826 5825 5824 5824 5823 5823 5822 5821 5821
Wind_Speed
3 2 2 2 1 2 2 2 1 2 3 3 3 3 3 3 3 3 4 4 4 4 5 4 4 4 4 4 4 3 3 3 3 4 4 4 5 4 4 4 5 5 5 6 6 6 6 6 6
3 3 2 2 2 2 2 2 2 3 3 3 3 3 3 3 4 4 4 4 5 5 5 5 5 5 5 4 4 4 4 4 4 4 5 5 5 5 5 5 5 6 6 7 7 7 6 6 7
3 3 3 3 3 3 2 2 3 3 3 3 3 4 4 4 4 5 5 5 6 6 6 5 5 6 5 6 6 6 6 6 6 5 5 5 5 5 5 6 6 6 6 7 6 7 7 6 7
4 3 3 3 3 3 3 3 3 3 3 3 4 4 4 4 5 5 6 6 6 6 6 6 7 6 6 6 6 6 7 7 6 6 6 6 6 6 6 6 6 7 7 7 7 7 7 7 7
4 4 4 4 4 3 3 3 3 3 3 3 4 4 4 5 5 5 6 7 7 7 7 6 7 7 7 7 6 6 6 6 6 6 6 6 7 6 6 6 6 7 7 8 8 8 8 8 8
4 4 4 4 3 3 3 2 3 3 3 4 4 4 5 5 5 6 7 7 7 8 8 7 7 7 7 7 7 6 7 7 6 7 6 7 7 7 7 7 7 7 7 8 9 9 9 9 9
3 3 3 3 3 3 3 2 3 4 4 4 5 5 5 5 6 6 7 7 7 7 8 8 8 7 8 7 7 7 7 7 6 7 7 7 7 7 7 7 7 7 8 9 9 9 9 10 11
2 3 2 3 3 2 3 3 3 3 4 5 5 5 5 5 6 7 7 7 7 8 8 8 8 8 8 8 8 8 8 7 7 7 7 7 8 8 8 9 8 8 9 9 9 9 10 10 10
3 3 3 3 3 3 3 4 4 4 4 5 5 5 6 6 6 6 7 7 7 7 8 8 8 8 8 8 8 8 8 8 7 7 8 8 8 8 9 8 8 8 9 9 9 9 10 10 9
3 3 4 3 3 3 4 4 4 5 5 5 5 5 6 6 6 6 6 7 7 8 8 8 8 8 8 8 8 7 7 8 8 8 8 9 9 9 9 9 8 9 9 9 9 9 9 9 9
3 3 4 4 4 4 5 5 5 5 5 5 5 6 6 6 6 6 6 6 7 8 8 8 8 8 8 8 7 7 8 8 8 8 9 9 9 10 9 10 9 9 9 10 10 9 10 10 10
3 3 4 4 4 5 5 5 6 6 6 6 6 6 7 7 6 7 6 7 7 8 8 9 9 8 8 7 7 7 8 8 8 9 8 8 8 8 9 9 9 9 10 10 10 11 11 11 11
4 4 4 5 5 5 5 5 6 6 6 6 6 6 7 7 7 7 7 7 7 8 8 8 8 8 7 7 7 7 7 7 8 8 8 8 8 8 8 8 8 9 10 10 10 10 10 10 10
5 4 4 5 6 6 6 6 6 6 6 7 7 7 6 7 7 8 7 7 7 8 8 8 7 7 7 7 7 7 7 7 7 8 9 8 8 8 8 8 8 9 10 10 10 10 10 11 11
5 5 5 5 6 6 7 7 6 6 6 7 7 7 7 7 7 7 7 7 8 8 8 8 7 7 6 6 7 7 8 8 7 8 8 8 8 8 8 8 8 8 9 9 9 9 10 10 10
6 5 6 6 6 6 6 6 6 6 6 6 7 7 7 7 7 7 7 7 7 8 7 7 7 6 6 6 7 7 7 7 7 8 8 8 8 8 8 7 8 8 8 8 9 9 9 9 10
6 6 7 7 6 6 6 6 6 7 7 7 7 7 7 6 7 7 7 7 6 6 6 6 6 6 6 6 6 7 7 7 7 7 7 7 7 6 7 7 7 7 7 7 7 8 8 8 9
7 7 7 7 7 7 7 6 6 7 7 7 7 7 7 6 7 8 7 6 6 5 6 6 6 6 6 6 6 6 7 7 6 6 6 6 5 5 5 5 5 6 6 6 7 7 8 8 8
7 6 6 7 8 8 7 6 6 6 6 6 6 7 7 7 7 7 7 6 5 5 5 5 6 6 6 5 5 6 6 5 5 5 5 5 4 4 4 4 4 5 6 6 6 6 7 8 8
8 7 7 7 8 8 6 6 5 6 6 6 7 7 7 7 7 6 6 6 5 5 5 5 6 5 5 5 5 5 5 5 4 3 3 3 3 3 3 4 4 5 5 6 6 6 7 8 8
8 8 8 8 7 7 7 6 6 6 6 7 7 7 7 6 6 5 5 5 5 5 5 6 6 5 6 5 5 5 5 4 4 4 3 3 3 3 3 4 4 4 5 5 5 6 6 6 6
9 8 8 8 7 7 6 6 6 7 6 7 7 7 7 6 5 5 5 5 5 5 5 6 6 5 5 5 4 4 4 4 4 4 3 3 3 4 4 4 5 5 5 4 4 5 5 5 6
9 9 9 8 8 8 7 7 6 7 6 6 6 6 6 6 5 5 5 5 5 5 5 5 5 5 5 4 4 4 4 4 3 3 3 3 3 4 4 4 4 4 4 4 4 4 5 5 5
10 9 9 9 10 9 8 8 7 7 7 7 6 5 5 6 5 5 5 5 5 5 5 5 5 5 5 5 4 4 4 3 3 3 4 4 3 3 4 5 5 4 4 4 5 6 5 5 5
11 11 11 11 11 10 9 9 8 8 8 7 6 6 6 6 6 5 5 5 5 5 6 6 5 5 6 5 5 4 4 4 4 4 4 4 4 4 4 5 5 5 5 5 6 6 6 5 5
12 12 12 12 11 10 10 9 9 8 8 8 7 6 6 6 6 6 6 6 6 6 6 6 6 5 5 5 5 4 4 5 4 5 5 5 5 5 4 5 5 6 6 6 6 6 6 6 6
14 13 13 13 13 12 11 10 8 8 9 8 8 8 7 7 6 6 6 6 6 6 6 6 6 6 6 5 4 4 5 5 5 5 5 5 5 5 5 5 6 6 7 7 7 7 6 6 6
15 14 14 14 14 13 12 11 9 9 9 9 9 9 9 8 7 7 6 6 7 7 7 6 6 6 6 5 5 5 5 5 5 5 6 5 5 6 5 6 7 7 7 7 8 8 7 7 7
15 15 15 15 15 14 14 12 11 11 11 10 10 10 10 10 9 8 7 7 7 7 7 7 8 8 7 6 6 5 5 5 6 6 6 6 6 6 7 7 7 7 7 7 7 8 8 8 8
16 15 15 16 15 15 15 13 13 13 12 12 12 12 11 10 10 9 9 8 8 8 9 9 9 9 8 8 7 6 6 6 6 7 7 6 6 7 7 8 8 8 8 8 8 8 8 8 8
Wind_Direction
335 332 328 307 287 285 283 276 291 304 314 330 332 331 334 342 341 338 341 337 337 332 330 321 312 304 303 308 314 315 312 312 309 304 296 299 295 296 296 288 276 263 258 257 256 247 235 239 238
317 320 327 318 303 288 279 277 281 295 308 313 314 315 322 327 329 324 329 327 325 320 314 315 307 300 297 297 299 302 298 297 298 300 296 294 294 293 290 285 276 268 266 261 255 248 237 242 243
302 307 310 313 302 296 297 290 291 298 299 308 310 313 318 315 313 314 315 312 311 310 308 305 295 294 297 299 298 296 293 293 294 295 292 287 283 287 288 287 278 269 269 264 256 250 244 249 251
299 302 303 309 301 295 291 287 285 292 302 313 314 316 319 313 308 307 307 305 305 306 304 304 292 293 297 296 295 291 287 290 291 293 288 287 283 278 278 280 277 269 269 259 250 247 246 250 253
293 300 306 309 302 295 288 286 291 295 305 311 316 318 320 314 310 307 307 307 304 306 309 308 299 293 294 291 290 289 286 290 293 292 286 281 279 275 272 271 273 269 264 254 248 247 247 250 253
295 300 309 313 315 307 297 290 287 295 310 317 320 320 322 321 316 310 308 307 304 299 302 301 295 292 290 288 286 285 288 290 289 288 284 281 276 270 268 266 267 268 264 259 252 249 248 251 255
301 306 311 317 323 317 311 316 314 307 315 319 321 317 317 322 320 315 311 308 303 300 299 299 295 297 295 290 287 287 289 288 287 288 286 284 281 275 271 269 268 265 265 262 255 253 250 254 255
338 324 320 319 326 324 322 320 319 317 319 319 317 314 313 313 312 313 312 311 307 303 301 299 295 296 298 297 292 288 284 286 287 288 287 287 285 278 271 265 260 256 260 260 255 253 251 253 254
350 340 332 326 331 335 333 326 322 316 316 316 317 314 312 313 313 313 314 311 307 308 308 302 299 300 301 301 297 292 284 284 287 290 287 288 288 282 276 269 263 261 262 260 259 257 253 253 254
332 334 328 323 325 327 328 322 322 324 321 318 321 317 317 316 316 315 314 312 309 311 309 305 299 302 299 298 296 294 288 285 286 289 290 289 286 284 277 270 270 269 266 261 261 259 257 258 259
333 329 323 316 318 316 323 315 314 321 318 315 322 323 321 316 315 316 313 316 315 314 313 306 300 299 298 298 297 293 288 286 285 284 286 289 284 282 280 273 269 268 268 262 260 263 263 262 260
322 323 312 314 315 316 323 325 321 322 320 318 317 318 321 318 316 312 311 312 315 312 312 306 297 293 292 292 293 289 286 285 284 286 282 287 288 282 278 276 271 266 267 265 262 262 266 264 259
311 314 305 305 312 316 322 325 325 317 316 318 315 313 316 314 314 313 314 311 311 312 311 310 302 294 291 289 290 289 286 286 281 280 285 290 288 284 278 272 268 268 265 265 265 264 266 265 259
309 307 302 305 309 308 311 316 316 313 314 315 314 310 309 309 310 310 310 311 311 313 315 310 308 301 297 292 289 289 285 285 281 284 287 289 287 284 280 275 270 269 267 263 265 265 266 264 262
303 306 300 302 305 303 301 308 311 313 311 315 317 314 310 309 312 313 312 309 310 311 311 317 312 304 301 301 296 290 285 286 287 290 291 290 286 281 279 274 270 269 269 267 266 266 267 265 262
297 299 297 302 304 305 306 309 313 314 312 315 316 317 315 314 313 312 312 310 310 312 313 317 316 310 308 306 301 295 290 291 292 291 291 293 288 282 278 273 270 269 268 267 269 268 265 264 262
291 296 298 301 307 304 302 301 303 306 307 311 315 319 321 320 315 315 316 313 314 318 319 319 320 316 310 308 305 299 298 297 294 293 295 294 288 280 275 275 271 271 271 271 272 267 262 265 268
294 298 297 298 304 301 298 295 300 308 307 311 315 323 326 323 321 319 320 319 318 322 324 328 326 321 317 316 312 308 303 302 301 302 298 299 290 279 278 277 274 274 274 275 273 272 265 266 268
283 292 294 296 298 299 300 296 302 310 311 317 320 324 328 328 324 322 321 322 318 317 324 328 329 324 322 321 316 312 306 305 307 319 311 305 302 285 277 280 278 277 279 279 277 277 275 269 266
275 280 289 293 293 293 295 301 304 309 311 315 319 318 320 325 326 326 324 325 324 322 323 325 324 323 323 318 318 320 323 322 320 324 329 322 313 299 287 286 284 279 284 281 279 279 280 275 270
272 275 280 289 294 292 288 289 301 307 310 314 321 321 320 324 327 328 327 329 332 335 330 325 321 320 320 315 314 320 324 332 329 327 327 330 311 301 302 297 287 285 288 285 280 282 287 281 276
268 273 276 279 286 289 293 298 299 300 306 310 318 324 323 322 326 330 330 329 337 339 332 328 325 324 328 321 309 313 320 330 331 328 323 314 307 306 305 298 294 296 291 291 290 290 284 285 286
268 271 271 271 277 282 290 296 300 299 302 304 310 316 320 322 325 326 328 330 335 339 332 325 324 318 320 326 316 312 311 319 327 337 335 319 304 307 313 310 301 303 299 297 294 284 288 287 288
265 270 270 269 272 276 283 290 296 297 299 305 307 309 313 321 329 328 325 325 330 335 333 326 321 314 312 318 314 310 307 308 312 322 330 330 323 312 314 314 305 302 300 300 302 289 287 292 289
264 269 271 272 275 278 279 282 286 295 296 299 299 302 310 318 323 326 325 324 327 330 329 324 319 309 305 305 302 299 301 303 302 310 317 317 314 307 307 311 305 301 301 300 305 296 288 290 295
263 266 269 273 276 276 276 281 284 289 293 294 295 300 303 311 315 318 320 323 325 325 323 323 321 319 308 301 299 301 301 298 294 301 307 307 304 301 303 306 305 303 302 302 306 306 297 295 296
261 263 266 270 273 273 274 277 279 284 292 290 293 295 297 301 305 308 308 312 316 313 312 315 315 313 314 308 303 301 301 298 293 293 293 296 297 296 297 301 304 304 300 297 298 300 299 297 295
259 260 263 266 271 272 274 274 274 281 287 289 292 295 298 295 295 297 298 303 307 309 310 310 311 311 311 307 302 299 297 292 291 293 288 288 293 294 296 303 306 303 294 292 292 293 297 292 294
256 257 260 264 267 270 274 273 273 276 282 285 290 292 293 293 285 285 288 295 301 301 305 308 307 304 303 300 294 284 288 290 292 291 284 286 289 291 295 300 303 300 293 288 289 292 294 290 291
255 258 261 263 265 269 273 271 270 273 280 287 290 288 286 288 281 279 282 289 295 299 300 301 301 301 297 292 291 287 281 283 288 295 292 290 290 290 293 298 301 301 292 290 292 291 288 286 288